[Iaude] MPEC C113: 2024 CC2 [a=1.31,e=0.19,i=19.0,H=24.3]
    mpec at cfa.harvard.edu 
    mpec at cfa.harvard.edu
       
    Sat Feb 10 23:48:10 EST 2024
    
    
  
M.P.E.C. 2024-C113                            Issued 2024 February 11, 04:46 UT
     The Minor Planet Electronic Circulars contain information on unusual
         minor planets, routine data on comets and natural satellites,
         and occasional editorial announcements.  They are published
    on behalf of Division F of the International Astronomical Union by the
          Minor Planet Center, Smithsonian Astrophysical Observatory,
                          Cambridge, MA 02138, U.S.A.
			  
             Prepared using the Tamkin Foundation Computer Network
                              MPC at CFA.HARVARD.EDU
            URL https://www.minorplanetcenter.net/    ISSN 1523-6714
                                    2024 CC2                                    
Observations:
     K24C02C* C2024 02 08.35951209 24 30.686+17 53 44.21         21.15wXEC113F52
     K24C02C  C2024 02 08.37186109 24 27.175+17 52 42.07         21.16wXEC113F52
     K24C02C  C2024 02 08.38421109 24 23.675+17 51 39.91         21.23wXEC113F52
     K24C02C  C2024 02 09.08214209 21 18.04 +16 52 39.6                WEC113X09
     K24C02C  C2024 02 09.09261209 21 15.16 +16 51 46.3                WEC113X09
     K24C02C KB2024 02 09.28520 09 20 21.312+16 34 12.22         21.3 GXEC113H36
     K24C02C KB2024 02 09.30374 09 20 16.001+16 32 34.33         20.7 GXEC113H36
     K24C02C  C2024 02 09.38007009 19 57.120+16 26 09.91         20.88GVEC113F52
     K24C02C  C2024 02 09.38088909 19 56.899+16 26 05.97         20.90GVEC113F52
     K24C02C |C2024 02 11.14616009 11 56.820+13 48 20.20         20.9 GVEC113807
     K24C02C |C2024 02 11.15064009 11 55.480+13 47 55.70         21.0 GVEC113807
     K24C02C |C2024 02 11.15498009 11 54.220+13 47 32.10         20.9 GVEC113807
Observer details:
807 Cerro Tololo Observatory, La Serena.  Observers T. Linder, R. Holmes.
    0.61-m f/11 Ritchey-Chretien + CCD.
F52 Pan-STARRS 2, Haleakala.  Observers J. Herman, T. Lowe, P. Minguez, A.
    Schultz, I. Smith.  Measurers K. Chambers, T. de Boer, J. Fairlamb, H.
    Gao, M. Huber, C.-C. Lin, E. Magnier, Y. Ramanjooloo, R. Wainscoat, R.
    Weryk.  1.8-m Ritchey-Chretien + CCD.
H36 Sandlot Observatory, Scranton.  Observer G. Hug.  0.56-m f/4.8 reflector +
    CMO.
X09 Deep Random Survey, Rio Hurtado.  Observers A. Schnabel, D. Ruhela.
    Measurer S. Deen.  0.43-m reflector + CMOS.
Orbital elements:
2024 CC2                                                 Earth MOID = 0.1592 AU
Epoch 2023 Sept. 13.0 TT = JDT 2460200.5                MPC                     
M 218.13509              (2000.0)            P               Q                  
n   0.65403751     Peri.  241.18446     -0.90302584     +0.37434205             
a   1.3144204      Node   319.75068     -0.18059506     -0.77592185             
e   0.1850479      Incl.   19.03639     -0.38978167     -0.50775320             
P   1.51           H   24.30          G   0.15           U   9                  
Residuals in seconds of arc
240208 F52  0.1+  0.1+    240209 X09  0.2+  0.4+    240209 F52  0.1+  0.2+
240208 F52  0.0   0.1-    240209 H36  0.3+  0.0     240211 807  0.3+  0.3-
240208 F52  0.1+  0.2-    240209 H36  0.0   0.8-    240211 807  0.2-  0.1-
240209 X09  0.9-  0.1-    240209 F52  0.1-  0.1-    240211 807  0.1-  0.2+
Ephemeris:
2024 CC2                 a,e,i = 1.31, 0.19, 19                  q = 1.0712
Date    TT    R. A. (2000) Decl.     Delta      r    Elong.  Phase     V
2024 01 12    10 39 02.4 +38 36 54   0.3287  1.2427   136.5    33.0    23.7
...
2024 01 27    10 11 06.0 +31 06 58   0.2348  1.2013   154.9    20.4    22.6
...
2024 02 04    09 42 59.8 +23 30 29   0.1975  1.1802   169.1     9.1    21.7
...
2024 02 10    09 17 08.6 +15 31 39   0.1786  1.1650   176.5     3.0    21.2
2024 02 11    09 12 36.2 +14 01 16   0.1764  1.1626   174.5     4.6    21.3
2024 02 12    09 08 01.9 +12 28 25   0.1744  1.1601   172.3     6.6    21.3
...
2024 02 18    08 40 40.8 +02 38 02   0.1686  1.1459   157.7    19.1    21.7
...
2024 02 26    08 07 38.0 -10 09 52   0.1757  1.1283   139.0    35.2    22.2
...
2024 03 12    07 25 45.5 -27 11 10   0.2183  1.1006   114.0    55.6    23.2
A. U. Tomatic                (C) Copyright 2024 MPC           M.P.E.C. 2024-C113
    
    
More information about the Iaude
mailing list